Location: Newark
(25.4800°N, 85.7200°E)
Time: 11:37:58
(UTC+00:00)

Transit 4A - Pass Details

Date: 30 August 2019
Orbit: 865 x 980 km, 66.8° (Epoch: 19 September)

Event Time Altitude Azimuth Distance (km) Brightness Sun altitude
Rises 10:17:13 0° 214° (SW) 3,641 11.5 31.0°
Reaches altitude 10° 10:19:49 10° 219° (SW) 2,706 11.1 30.4°
Maximum altitude 10:26:00 54° 296° (WNW) 1,178 9.7 29.1°
Drops below altitude 10° 10:32:15 10° 12° (NNE) 2,727 10.3 27.6°
Sets 10:34:53 0° 17° (NNE) 3,671 10.8 27.0°
